Main page
METAR-TAF:

METAR-TAF

Airports :

Granite Falls Municipal Airport (Lenzen-Roe Memorial Field)

Granite Falls, Minnesota, United States

latitude: 44-45-11N, longitude: 095-33-21W, elevation: 1046 ft

Current weather observation

The report was made 10 minutes ago, at 16:15 UTC
Wind 16 mph from the North/Northwest with gusts up to 21 mph
Temperature 75°F
Humidity 29%
Pressure 30.03 in. Hg
Visibility: 10 miles
Clear sky

METAR: KGDB 281615Z AUTO 34014G18KT 10SM CLR 24/05 A3003 RMK AO2 T02410048

Time: 11:25 (16:25 UTC)


TAF: missing

Weather observations and forecasts of more than 4000 airports (METAR and TAF reports).

The available stations are represented by yellow and red dots on the map.

Hover mouse over dot to see the name of the station.

Then click to see weather observations and forecasts.

To change the map : click on the green buttons with a black cross to zoom in, on the green button with a dash to zoom out, or on the green arrows for adjacent maps.


METAR-TAF: